Terug naar catalogus

BREEZE-M DEB

ActiefHEO
NORAD 41323·DEBRIS·🇷🇺 Russia

Gelanceerd May 17, 2012 vanaf Baikonur Cosmodrome

Loading…

Volgende Passages (komende 24 uur)

TLE

VersSource: Space-Track

Epoch: Sep 14, 2026, 05:07 UTC

1 41323U 12026K   26257.21359205 -.00000120  00000-0  00000-0 0  9997
2 41323  10.1711 123.1162 4133990  70.3174 329.1345  1.77768369 69469

Volg BREEZE-M DEB in realtime met AllMySat

Download on the App Store